Flag for Germany Weather past 2 weeks in Bünde, North Rhine-Westphalia, Germany

Now
54 °F

Cool.


Feels Like: 49 °F
Forecast: 42 / 53 °F
Wind: 14 mph from West

Location: Bueckeburg

Current Time: Dec 18, 2014 at 4:38:28 PM

Latest Report: Dec 18, 2014 at 3:20 PM


Visibility: 5 mi

Pressure: 29.71 "Hg

Humidity: 88%

Dew point: 50 °F

Location of BündeLocation

Historic Weather in Bünde — Graph

°F

Bünde temperature yesterday

Maximum temperature yesterday: 48 °F (at 10:20 PM)
Minimum temperature yesterday: 36 °F (at 12:20 AM)
Average temperature yesterday: 41 °F

Past Weeks' High & Low Weather Summary

 TemperatureHumidityPressure
High54 °F (Dec 18, 2:20 PM)94% (Dec 18, 12:20 AM)30.36 "Hg (Dec 18, 12:20 AM)
Low27 °F (Dec 3, 3:20 PM)61% (Dec 10, 5:20 AM)29.30 "Hg (Dec 12, 3:20 PM)
Average40 °F85%29.92 "Hg
* Reported Dec 3 3:20 PM — Dec 18 3:20 PM, Bünde, Weather by CustomWeather, © 2014

Note: Actual official high and low records may vary slightly from our data, if they occured in-between our weather recording intervals... More about our weather records

Advertising

Bünde weather history for previous 24 hours

 ConditionsComfort  
Time TempWeatherWind HumidityBarometerVisibility
3:20 PM
Dec 18
54 °FCool.14 mph88%29.71 "Hg5 mi
2:20 PM54 °FCool.13 mph88%29.74 "Hg2 mi
1:20 PM52 °FCool.12 mph94%29.74 "Hg6 mi
12:20 PM52 °FCool.13 mph94%29.77 "Hg5 mi
11:20 AM52 °FPartly sunny.14 mph88%29.77 "Hg5 mi
10:20 AM52 °FDrizzle. Fog.13 mph88%29.77 "Hg3 mi
9:20 AM52 °FDrizzle. Partly sunny.12 mph88%29.77 "Hg4 mi
8:20 AM50 °FDrizzle. Fog.13 mph94%29.77 "Hg3 mi
7:20 AM50 °FDrizzle. Fog.9 mph94%29.77 "Hg3 mi
6:20 AM50 °FDrizzle. Fog.9 mph94%29.77 "Hg3 mi
5:20 AM50 °FDrizzle. Fog.9 mph94%29.77 "Hg2 mi
4:20 AM50 °FPassing clouds.9 mph88%29.77 "Hg4 mi
3:20 AM50 °FPartly cloudy.8 mph88%29.77 "Hg4 mi
2:20 AM50 °FPassing clouds.10 mph88%29.77 "Hg4 mi
1:20 AM48 °FPassing clouds.12 mph94%29.77 "Hg4 mi
12:20 AM48 °FPassing clouds.12 mph94%29.74 "Hg4 mi
11:20 PM
Dec 17
48 °FPassing clouds.8 mph87%29.74 "Hg6 mi
10:20 PM48 °FPassing clouds.8 mph87%29.71 "HgN/A
9:20 PM46 °FPartly cloudy.8 mph93%29.68 "HgN/A
8:20 PM46 °FDrizzle. Mostly cloudy.13 mph93%29.65 "Hg4 mi
7:20 PM46 °FLight rain. Passing clouds.10 mph93%29.62 "Hg6 mi
6:20 PM45 °FLight rain. Fog.12 mph93%29.59 "Hg3 mi
5:20 PM45 °FLight rain. Passing clouds.14 mph93%29.56 "Hg5 mi
4:20 PM43 °FLight rain. Passing clouds.14 mph93%29.56 "Hg5 mi
Weather by CustomWeather, © 2014

See weather overviewHow to use our weather pages